Weather History for KBGD - February, 2014

Change the Weather History Date:

Monday, February 17, 2014

  Actual Average Record
Temperature  
Mean Temperature 53 °F 42 °F  
Max Temperature 64 °F 55 °F 85 °F (1970)
Min Temperature 41 °F 30 °F 4 °F (1993)
Degree Days  
Heating Degree Days 12 23  
Month to date heating degree days 531 406  
Since 1 July heating degree days 2882 2758  
Cooling Degree Days 0 0  
Month to date cooling degree days 0 0  
Year to date cooling degree days 0 0  
Growing Degree Days 2 (Base 50)    
Moisture  
Dew Point 13 °F    
Average Humidity 30    
Maximum Humidity 51    
Minimum Humidity 8    
Precipitation  
Precipitation 0.00 in 0.02 in 0.58 in (1969)
Month to date precipitation 0.29 0.41  
Year to date precipitation 0.36 1.00  
Snow  
Snow 0.00 in - 6.00 in (1969)
Month to date snowfall 4.1  
Since 1 July snowfall 12.6  
Snow Depth 0.00 in    
Sea Level Pressure  
Sea Level Pressure 30.05 in    
Wind  
Wind Speed 11 mph (NNE)    
Max Wind Speed 25 mph    
Max Gust Speed 33 mph    
Visibility 10 miles    
Events      
T = Trace of Precipitation, MM = Missing Value Source: NWS Daily Summary

Daily Weather History Graph

Daily Weather History Graph

Search for Another Location

Airport or City:

Trip Planner

Search our weather history database for the weather conditions in past years. The results will help you decide how hot, cold, wet, or windy it might be!

Date:

Astronomy

Feb. 17, 2014 Rise Set
Actual Time 7:30 AM CST 6:29 PM CST
Civil Twilight 7:04 AM CST 6:55 PM CST
Nautical Twilight 6:34 AM CST 7:25 PM CST
Astronomical Twilight 6:04 AM CST 7:55 PM CST
Moon 9:18 PM CST (2/17) 8:38 AM CST (2/17)
Length of Visible Light 11h 51m
Length of Day
10h 59m
Waning Gibbous, 93% of the Moon is Illuminated
Feb 17
Waning Gibbous
Feb 22
Last Quarter
Mar 1
New
Mar 8
First Quarter
Mar 16
Full

Hourly Weather History & Observations

Time (CST) Temp. Windchill Dew Point Humidity Pressure Visibility Wind Dir Wind Speed Gust Speed Precip Events Conditions
12:51 AM 61.0 °F - 18.0 °F 19% 29.78 in 10.0 mi West 13.8 mph 20.7 mph N/A   Clear
1:51 AM 60.1 °F - 19.0 °F 20% 29.81 in 10.0 mi West 10.4 mph 17.3 mph N/A   Clear
2:51 AM 59.0 °F - 19.0 °F 21% 29.84 in 10.0 mi West 11.5 mph - N/A   Clear
3:27 AM 55.0 °F - 21.9 °F 28% 30.01 in 10.0 mi NNE 13.8 mph - N/A   Clear
3:51 AM 53.1 °F - 25.0 °F 34% 29.96 in 10.0 mi NNE 11.5 mph - N/A   Clear
4:51 AM 48.9 °F - 27.0 °F 43% 30.02 in 10.0 mi North 8.1 mph - N/A   Clear
5:51 AM 46.9 °F - 26.1 °F 44% 30.06 in 10.0 mi NNE 11.5 mph - N/A   Clear
6:51 AM 45.0 °F 39.3 °F 25.0 °F 46% 30.10 in 10.0 mi NNE 11.5 mph - N/A   Clear
7:51 AM 41.0 °F 35.2 °F 25.0 °F 53% 30.14 in 10.0 mi NNE 9.2 mph - N/A   Clear
8:51 AM 46.0 °F 39.9 °F 21.0 °F 37% 30.15 in 10.0 mi North 13.8 mph - N/A   Clear
9:51 AM 50.0 °F - 16.0 °F 26% 30.16 in 10.0 mi North 16.1 mph - N/A   Clear
10:51 AM 53.1 °F - 12.9 °F 20% 30.16 in 10.0 mi NNE 16.1 mph - N/A   Clear
11:51 AM 57.0 °F - 9.0 °F 15% 30.16 in 10.0 mi NNE 9.2 mph - N/A   Clear
12:51 PM 59.0 °F - 3.9 °F 11% 30.14 in 10.0 mi North 5.8 mph - N/A   Clear
1:51 PM 60.1 °F - 5.0 °F 11% 30.11 in 10.0 mi Variable 4.6 mph - N/A   Clear
2:51 PM 61.0 °F - 5.0 °F 11% 30.09 in 10.0 mi Calm Calm - N/A   Clear
3:51 PM 62.1 °F - 3.0 °F 9% 30.09 in 10.0 mi SSE 5.8 mph - N/A   Clear
4:51 PM 63.0 °F - 1.9 °F 9% 30.08 in 10.0 mi SSE 5.8 mph - N/A   Clear
5:51 PM 62.1 °F - -0.0 °F 8% 30.07 in 10.0 mi South 9.2 mph - N/A   Clear
6:51 PM 57.0 °F - 3.0 °F 11% 30.09 in 10.0 mi South 9.2 mph - N/A   Clear
7:51 PM 54.0 °F - 6.1 °F 15% 30.10 in 10.0 mi South 12.7 mph - N/A   Clear
8:51 PM 50.0 °F - 6.1 °F 17% 30.10 in 10.0 mi South 11.5 mph - N/A   Clear
9:51 PM 51.1 °F - 6.1 °F 16% 30.07 in 10.0 mi South 15.0 mph 24.2 mph N/A   Clear
10:51 PM 50.0 °F - 7.0 °F 18% 30.04 in 10.0 mi South 16.1 mph 23.0 mph N/A   Clear
11:51 PM 48.9 °F - 8.1 °F 19% 30.01 in 10.0 mi South 16.1 mph 26.5 mph N/A   Clear